Home > Weather > Trondheim > Past weeks

Flag for Norway Past Weather in Trondheim, Norway — Yesterday and Last 2 Weeks

Now
63 °F

Passing clouds.


Feels Like: 63 °F
Forecast: 52 / 59 °F
Wind: 5 mph from West

Location: Trondheim / Vaernes

Current Time: Aug 28, 2016 at 2:28:54 PM

Latest Report: Aug 28, 2016 at 1:50 PM


Visibility: N/A

Pressure: 30.07 "Hg

Humidity: 56%

Dew Point: 46 °F

Location of TrondheimLocation

Past Weather in Trondheim — Graph

°F

Trondheim Temperature Yesterday

Maximum temperature yesterday: 57 °F (at 12:20 AM)
Minimum temperature yesterday: 54 °F (at 2:50 AM)
Average temperature yesterday: 55 °F

High & Low Weather Summary for the Past Weeks

 TemperatureHumidityPressure
High77 °F (Aug 18, 4:50 PM)100% (Aug 15, 4:50 AM)30.27 "Hg (Aug 15, 4:50 AM)
Low43 °F (Aug 15, 4:50 AM)32% (Aug 18, 5:50 PM)29.36 "Hg (Aug 26, 6:20 PM)
Average58 °F76%30.01 "Hg
* Reported Aug 13 12:20 PM — Aug 28 12:50 PM, Trondheim, Weather by CustomWeather, © 2016

Note: Actual official high and low records may vary slightly from our data, if they occured in-between our weather recording intervals... More about our weather records

Advertising

Trondheim Weather History for the Previous 24 Hours

Scroll right to see more
 ConditionsComfort  
Time TempWeatherWind HumidityBarometerVisibility
12:50 PM
Sun, Aug 28
61 °FPassing clouds.2 mph63%30.07 "HgN/A
11:50 AM59 °FScattered clouds.2 mph68%30.09 "HgN/A
11:20 AM59 °FScattered clouds.3 mph72%30.09 "HgN/A
10:50 AM57 °FScattered clouds.3 mph77%30.12 "HgN/A
10:20 AM55 °FScattered clouds.5 mph82%30.12 "HgN/A
9:50 AM54 °FScattered clouds.6 mph88%30.12 "HgN/A
9:20 AM52 °FScattered clouds.5 mph94%30.12 "HgN/A
8:50 AM52 °FPartly sunny.5 mph94%30.12 "HgN/A
8:20 AM52 °FPartly sunny.5 mph94%30.12 "HgN/A
7:50 AM50 °FPartly sunny.5 mph94%30.12 "HgN/A
7:20 AM50 °FPartly sunny.5 mph94%30.12 "HgN/A
6:50 AM50 °FPassing clouds.6 mph94%30.12 "HgN/A
6:20 AM50 °FPassing clouds.5 mph94%30.12 "HgN/A
5:50 AM50 °FPassing clouds.6 mph94%30.12 "HgN/A
5:20 AM50 °FPassing clouds.5 mph100%30.12 "Hg4 mi
4:20 AM50 °FPartly cloudy.3 mph94%30.12 "HgN/A
3:20 AM50 °FPassing clouds.5 mph94%30.12 "Hg4 mi
2:50 AM50 °FPassing clouds.1 mph94%30.15 "Hg4 mi
2:20 AM52 °FPassing clouds.2 mph88%30.12 "Hg2 mi
1:20 AM52 °FPassing clouds.2 mph94%30.12 "HgN/A
12:50 AM52 °FPassing clouds.3 mph88%30.12 "HgN/A
12:20 AM52 °FPartly cloudy.6 mph88%30.12 "HgN/A
11:50 PM
Sat, Aug 27
54 °FPartly cloudy.7 mph82%30.12 "HgN/A
11:20 PM54 °FPartly cloudy.8 mph82%30.12 "HgN/A
10:50 PM54 °FPartly cloudy.9 mph82%30.12 "HgN/A
10:20 PM54 °FPartly cloudy.12 mph82%30.09 "HgN/A
9:50 PM54 °FScattered showers. Partly cloudy.12 mph82%30.09 "HgN/A
9:20 PM54 °FScattered showers. Broken clouds.14 mph82%30.09 "HgN/A
8:50 PM54 °FScattered showers. Broken clouds.13 mph82%30.09 "HgN/A
7:50 PM55 °FScattered showers. Broken clouds.18 mph77%30.07 "HgN/A
7:20 PM55 °FScattered showers. Broken clouds.17 mph72%30.07 "HgN/A
6:50 PM55 °FScattered showers. Broken clouds.16 mph77%30.07 "HgN/A
6:20 PM55 °FBroken clouds.16 mph77%30.07 "HgN/A
5:50 PM55 °FBroken clouds.17 mph77%30.04 "HgN/A
5:20 PM55 °FPartly sunny.18 mph82%30.04 "HgN/A
4:50 PM55 °FScattered showers. Broken clouds.22 mph82%30.04 "HgN/A
4:20 PM55 °FScattered showers. Broken clouds.21 mph82%30.04 "HgN/A
3:50 PM55 °FScattered showers. More clouds than sun.18 mph82%30.01 "HgN/A
3:20 PM54 °FScattered showers. More clouds than sun.21 mph88%30.01 "HgN/A
2:50 PM54 °FScattered showers. Broken clouds.23 mph88%30.01 "HgN/A
2:20 PM54 °FScattered showers. Mostly cloudy.28 mph88%29.98 "HgN/A
Weather by CustomWeather, © 2016

See weather overviewHow to use our weather pages